Regional Weather Roundup
Issued by NWS

Home | Current Version | Previous Version | Text Only | Print | Product List | Glossary Off
Versions: 1 2 3 4 5 6 7 8 9 10 11 12 13 14 15 16 17 18 19 20 21 22 23 24 25 26 27 28 29 30 31 32 33 34 35 36 37 38 39 40 41 42 43 44 45 46 47 48 49 50

000
ASUS43 KMKX 250059
RWRWI

WISCONSIN REGIONAL WEATHER ROUNDUP
NATIONAL WEATHER SERVICE MILWAUKEE/SULLIVAN WI
700 PM CST TUE JAN 24 2017

NOTE: "FAIR" INDICATES FEW OR NO CLOUDS BELOW 12,000 FEET WITH NO
SIGNIFICANT WEATHER AND/OR OBSTRUCTIONS TO VISIBILITY.

WIZ001-002-006>008-014>016-023>028-250200-
NORTHWEST WISCONSIN

CITY           SKY/WX    TMP DP  RH WIND       PRES   REMARKS
SUPERIOR ARPT  CLOUDY    32  26  78 NE3       29.86R
ASHLAND        CLOUDY    32  27  81 CALM      29.85S
HAYWARD        CLOUDY    31  27  85 NE8       29.81F WCI  23
SIREN          CLOUDY    31  27  83 NE7       29.81F WCI  24
CUMBERLAND     CLOUDY    32  28  86 NE6       29.79F WCI  26
RICE LAKE      CLOUDY    32  29  88 NE6       29.81F WCI  27
CHETEK         CLOUDY    33  29  86 CALM      29.80S
LADYSMITH      CLOUDY    33  32  96 CALM      29.81S
EAU CLAIRE     CLOUDY    33  29  85 NE6       29.78F WCI  28
MENOMONIE        N/A    N/A N/A N/A MISG        N/A
NEW RICHMOND   CLOUDY    32  29  87 NE7       29.80R WCI  26
OSCEOLA        CLOUDY    32  28  85 NE5       29.83R WCI  28
$$

WIZ003>005-009-010-017-018-250200-
NORTH CENTRAL WISCONSIN

CITY           SKY/WX    TMP DP  RH WIND       PRES   REMARKS
MANITOWISH WTR LGT SNOW  31  31 100 NE3       29.80S
ARBOR VITAE    LGT SNOW  34  32  93 CALM      29.80S
WOODRUFF       LGT SNOW  34  32  93 CALM      29.80S
RHINELANDER    CLOUDY    35  31  85 NE5       29.79F WCI  31
EAGLE RIVER    CLOUDY    32  32 100 N3        29.80S
LAND O LAKES   LGT SNOW  33  33 100 CALM      29.82R
PHILLIPS       CLOUDY    32  30  92 E5        29.79S WCI  27
TOMAHAWK       CLOUDY    33  29  86 CALM      29.80S
MEDFORD        CLOUDY    32  29  88 E3        29.78S
MERRILL        CLOUDY    34  31  88 CALM        N/A
$$

WIZ029-030-035-036-043>047-250200-
CENTRAL WISCONSIN

CITY           SKY/WX    TMP DP  RH WIND       PRES   REMARKS
WAUSAU         CLOUDY    35  29  78 NE5       29.77F WCI  31
MOSINEE        CLOUDY    34  32  93 NE6       29.79F WCI  29
MARSHFIELD     CLOUDY    33  28  81 E7        29.77F WCI  27
STEVENS POINT  CLOUDY    32  30  91 NE6       29.79F WCI  27
WAUPACA        CLOUDY    37  32  83 CALM      29.81F
WAUTOMA        CLOUDY    34  31  88 NE6       29.79F WCI  29
WISC RAPIDS    CLOUDY    34  30  85 E6        29.79F WCI  29
CAMP DOUGLAS   NOT AVBL
$$

WIZ011>013-019>022-031-037>040-048>050-250200-
NORTHEAST WISCONSIN

CITY           SKY/WX    TMP DP  RH WIND       PRES   REMARKS
ANTIGO         CLOUDY    33  32  95 NE7       29.79F WCI  27
SHAWANO        CLOUDY    37  33  83 CALM      29.82S
OCONTO         CLOUDY    34  33  95 CALM      29.82F
STURGEON BAY   CLOUDY    35  35 100 CALM      29.82F
GREEN BAY      CLOUDY    38  34  85 N3        29.82F
MANITOWOC      NOT AVBL
APPLETON       CLOUDY    36  34  93 VRB5      29.78F WCI  32
CLINTONVILLE   CLOUDY    36  32  87 CALM      29.80F
OSHKOSH        CLOUDY    35  31  85 NE5       29.79F WCI  31
$$

WIZ032>034-041-042-053>061-250200-
SOUTHWEST WISCONSIN

CITY           SKY/WX    TMP DP  RH WIND       PRES   REMARKS
LA CROSSE      CLOUDY    37  31  78 NE7       29.76F WCI  32
SPARTA         CLOUDY    33  31  91 NE5       29.78S WCI  29
VIROQUA        CLOUDY    33  32  96 E12       29.72F WCI  24
BOSCOBEL       CLOUDY    37  31  78 E5        29.75S WCI  33
PRAIRIE DU CHI CLOUDY    35  31  86 E3        29.75R
PLATTEVILLE    CLOUDY    34  34 100 E14       29.71F WCI  24
$$

WIZ056-057-062-063-064-067-068-250200-
SOUTH CENTRAL WISCONSIN

CITY           SKY/WX    TMP DP  RH WIND       PRES   REMARKS
REEDSBURG      CLOUDY    34  32  93 NE5       29.76F WCI  30
BARABOO/DELLS  CLOUDY    34  31  90 E6        29.76F WCI  29
LONE ROCK      NOT AVBL
MINERAL POINT  CLOUDY    34  34 100 E10       29.72F WCI  26
MADISON        CLOUDY    34  31  88 E8        29.79S WCI  27
MIDDLETON      CLOUDY    36  33  91 E7        29.77F WCI  30
WATERTOWN      CLOUDY    34  33  96 E7        29.79F WCI  28
MONROE         CLOUDY    32  32 100 E12       29.75S WCI  23
JANESVILLE     CLOUDY    36  36 100 E8        29.78R WCI  29
$$

WIZ051-052-058>065-066-070>072-250200-
SOUTHEAST WISCONSIN

CITY           SKY/WX    TMP DP  RH WIND       PRES   REMARKS
MILWAUKEE      CLOUDY    37  32  82 E7        29.80F WCI  32
WAUKESHA       CLOUDY    34  32  93 E6        29.81S WCI  29
MILWAUKEE/TIMM CLOUDY    36  30  80 E3        29.81F
RACINE         CLOUDY    36  31  82 SE5       29.84S WCI  32
KENOSHA        CLOUDY    35  32  88 E5        29.82S WCI  31
FOND DU LAC    CLOUDY    36  30  79 E6        29.79F WCI  31
SHEBOYGAN      CLOUDY    36  32  85 CALM      29.80F
WEST BEND      CLOUDY    34  34 100 CALM      29.80F
JUNEAU         CLOUDY    34  32  93 E3        29.80S
$$

LSZ147-162-250200-
LAKE SUPERIOR

STATION/POSITION TIME  TEMP    WIND        PRES    WAVE
                       AIR SEA DIR/SP/G            HT/PER
                 (UTC) (F)     (DEG/KT/KT) (MB)    (FT/S)
DEVILS ISLAND    0000   34     280/  3/  4 1011.7S
PORT WING        0040   33      CALM  /  1 1011.2R
SAXON HARBOR     0040   32      CALM  /  2 1010.8S
$$

LMZ867-665-643>646-250200-
LAKE MICHIGAN

STATION/POSITION TIME  TEMP    WIND        PRES    WAVE
                       AIR SEA DIR/SP/G            HT/PER
                 (UTC) (F)     (DEG/KT/KT) (MB)    (FT/S)
CHAMBERS ISLAND  0040   34        CALM     1009.5S
NORTHPORT PIER   0040   36        CALM     1009.8R
SISTER BAY       2350   35        CALM       N/A
KEWAUNEE LAKESHO 0030   36      CALM  /  1 1009.5F
SHEBOYGAN LAKESH 0000   38      10/  5/  6 1010.2F
PORT WASHINGTON  0040   38      60/  5/  7 1010.5F
KENOSHA   LAKESH 0000   35     140/  3/  5 1010.2
$$

TC  - TEMPERATURE IN CELSIUS
VSB - VISIBILITY IN STATUTE MILES
WCI - WIND CHILL INDEX
HX  - HEAT INDEX





USA.gov is the U.S. government's official web portal to all federal, state and local government web resources and services.